User: anonymous   Login
Location: Langangen
(59.1000°N, 9.8000°E)
Time: 15:09:36
(UTC+01:00)
Language:

Iridium 60 - Orbit

View from above orbital plane
View from above orbital plane
View from above satellite
View from above satellite

Ground track
Ground track

The orbit data is extracted from the following two-line orbital elements,

1 25276U 98019E   14325.51684467  .00000306  00000-0  10219-3 0   531
2 25276 086.3940 319.3824 0002205 106.0744 254.0695 14.34218533871523
Epoch (UTC): 21 November 2014 12:24:15
Eccentricity: 0.0002205
inclination: 86.3940°
perigee height: 776 km
apogee height: 779 km
right ascension of ascending node: 319.3824°
argument of perigee: 106.0744°
revolutions per day: 14.34218533
mean anomaly at epoch: 254.0695°
orbit number at epoch: 87152

The dashed part of the orbit path shows where the satellite is in the earth's shadow,  

DLR